Language selection

Features

My Weather Profile Weather Topics  | 

Resolution - western half: Past 24 Hour Conditions

 

Churchill Airport

11:00 PM CDT 18 April 2021
Disclaimer

This table is a summary of hourly weather conditions for the past 24 hours.
Please note that these observations might not always be representative of weather conditions over their associated marine area.

Date / Time
(CDT)
Wind(knots) Conditions Visibility(km) Pressure(kPa) Air tempC) Relative humidity(%) Dew pointC) Wind Chill
18 April 2021
23:00 NNW 22 Light Snow 19 102.4 -14 81 -16 -26
22:00 NNW 19 gust 27 Light Snow 19 102.4 -13 81 -16 -25
21:00 N 20 gust 28 Light Snow 10 102.4 -13 81 -16 -25
20:00 NNW 26 gust 31 Drifting Snow 13 102.4 -13 80 -16 -26
19:00 NNW 20 gust 28 Drifting Snow 24 102.4 -13 81 -15 -24
18:00 NNW 19 gust 26 Drifting Snow 19 102.4 -12 79 -15 -22
17:00 NNW 22 Drifting Snow 19 102.4 -11 81 -14 -23
16:00 NNW 22 Drifting Snow 19 102.3 -10 81 -12 -20
15:00 NNW 24 gust 30 Blowing Snow 6 102.3 -9 80 -12 -20
14:00 NW 17 gust 23 Drifting Snow 24 102.3 -9 74 -13 -19
13:00 NW 18 gust 25 Drifting Snow 24 102.4 -11 81 -13 -21
12:00 NW 18 gust 23 Drifting Snow 24 102.4 -12 79 -15 -22
11:00 NW 17 Drifting Snow 24 102.4 -14 77 -17 -24
10:00 NW 15 Drifting Snow 24 102.5 -15 78 -18 -25
9:00 NW 13 Sunny 24 102.5 -16 78 -19 -26
8:00 NW 14 Sunny 24 102.5 -16 80 -19 -27
7:00 NW 10 gust 18 Mainly Sunny 24 102.5 -16 81 -18 -25
6:00 NNW 15 Drifting Snow 24 102.5 -15 85 -17 -26
5:00 NNW 13 Drifting Snow 24 102.5 -15 83 -17 -25
4:00 NNW 15 Light Snow 24 102.4 -14 85 -16 -24
3:00 N 16 Light Snow 13 102.4 -13 86 -15 -23
2:00 NNW 16 gust 22 Light Snow 6 102.4 -12 87 -14 -22
1:00 NNW 14 Light Snow 19 102.4 -12 88 -13 -21
0:00 N 15 Drifting Snow 24 102.4 -11 88 -13 -21
17 April 2021
23:00 NNW 15 gust 21 Drifting Snow 24 102.3 -11 86 -13 -20

Zoom-in to make a selection

Map of Hudson - Hudson Bay marine weather areas Arviat Airport Baker Lake Airport Chesterfield Inlet Airport Coral Harbour Airport Rankin Inlet Airport Sanikiluaq Airport Whale Cove Airport Kinngait (Cape Dorset Airport) Iqaluit Airport Wager Bay Kimmirut Airport Churchill Airport Fort Severn Airport Peawanuck Airport Moosonee Airport Eastmain Airport La Grande Rivière Airport Waskaganish Airport Wemindji Airport Akulivik Airport Inukjuak Airport Ivujivik Airport Kuujjuarapik Airport Puvirnituq Airport Umiujaq Airport Aupaluk Airport Kangiqsujuaq Airport Kangirsuk Airport Kangiqsualujjuaq Airport Kuujjuaq Airport Quaqtaq Airport Salluit Airport Tasiujaq Airport Cape Kakkiviak
Legend:
buoy Buoy
land station Land Station

Hudson - Hudson Bay Area

Another Region

What we are doing

Date modified: